Time,TemperatureF,DewpointF,PressureIn,WindDirection,WindDirectionDegrees,WindSpeedMPH,WindSpeedGustMPH,Humidity,HourlyPrecipIn,Conditions,Clouds,dailyrainin,SoftwareType,DateUTC
2013-05-16 00:02:00,53.0,43.0,29.91,South,191,0.0,-999.0,70,-99.99,,,-99.99,,2013-05-16 07:02:00,
2013-05-16 00:12:00,53.0,43.0,29.91,South,191,0.0,-999.0,70,-99.99,,,-99.99,,2013-05-16 07:12:00,
2013-05-16 00:24:00,53.0,43.0,29.91,South,191,0.0,-999.0,70,-99.99,,,-99.99,,2013-05-16 07:24:00,
2013-05-16 00:34:00,53.0,44.0,29.91,South,191,0.0,-999.0,72,-99.99,,,-99.99,,2013-05-16 07:34:00,
2013-05-16 00:44:00,53.0,44.0,29.91,South,191,0.0,-999.0,72,-99.99,,,-99.99,,2013-05-16 07:44:00,
2013-05-16 00:54:00,53.0,44.0,29.91,South,191,0.0,-999.0,72,-99.99,,,-99.99,,2013-05-16 07:54:00,
2013-05-16 01:03:00,53.0,44.0,29.91,South,191,0.0,-999.0,72,-99.99,,,-99.99,,2013-05-16 08:03:00,
2013-05-16 01:13:00,53.0,44.0,29.91,South,191,0.0,-999.0,72,-99.99,,,-99.99,,2013-05-16 08:13:00,
2013-05-16 01:23:00,52.0,43.0,29.91,South,191,0.0,-999.0,72,-99.99,,,-99.99,,2013-05-16 08:23:00,
2013-05-16 01:34:00,53.0,44.0,29.91,South,191,0.0,-999.0,72,-99.99,,,-99.99,,2013-05-16 08:34:00,
2013-05-16 01:44:00,53.0,44.0,29.91,South,191,0.0,-999.0,72,-99.99,,,-99.99,,2013-05-16 08:44:00,
2013-05-16 01:55:00,53.0,45.0,29.91,South,191,0.0,-999.0,73,-99.99,,,-99.99,,2013-05-16 08:55:00,
2013-05-16 02:03:00,52.0,44.0,29.91,South,191,0.0,-999.0,74,-99.99,,,-99.99,,2013-05-16 09:03:00,
2013-05-16 02:14:00,52.0,44.0,29.91,South,191,0.0,-999.0,74,-99.99,,,-99.99,,2013-05-16 09:14:00,
2013-05-16 02:23:00,52.0,44.0,29.91,South,191,0.0,-999.0,74,-99.99,,,-99.99,,2013-05-16 09:23:00,
2013-05-16 02:35:00,53.0,44.0,29.92,South,191,0.0,-999.0,72,-99.99,,,-99.99,,2013-05-16 09:35:00,
2013-05-16 02:45:00,53.0,44.0,29.92,South,191,0.0,-999.0,72,-99.99,,,-99.99,,2013-05-16 09:45:00,
2013-05-16 02:55:00,52.0,45.0,29.92,South,191,0.0,-999.0,76,-99.99,,,-99.99,,2013-05-16 09:55:00,
2013-05-16 03:04:00,52.0,45.0,29.92,South,191,0.0,-999.0,76,-99.99,,,-99.99,,2013-05-16 10:04:00,
2013-05-16 03:14:00,52.0,45.0,29.92,South,191,0.0,-999.0,76,-99.99,,,-99.99,,2013-05-16 10:14:00,
2013-05-16 03:24:00,52.0,45.0,29.91,South,191,0.0,-999.0,78,-99.99,,,-99.99,,2013-05-16 10:24:00,
2013-05-16 03:35:00,52.0,45.0,29.91,South,191,0.0,-999.0,76,-99.99,,,-99.99,,2013-05-16 10:35:00,
2013-05-16 03:45:00,52.0,45.0,29.91,South,191,0.0,-999.0,76,-99.99,,,-99.99,,2013-05-16 10:45:00,
2013-05-16 03:56:00,52.0,46.0,29.91,South,191,1.0,-999.0,79,-99.99,,,-99.99,,2013-05-16 10:56:00,
2013-05-16 04:05:00,52.0,46.0,29.91,South,191,0.0,-999.0,79,-99.99,,,-99.99,,2013-05-16 11:05:00,
2013-05-16 04:14:00,52.0,46.0,29.91,South,191,0.0,-999.0,79,-99.99,,,-99.99,,2013-05-16 11:14:00,
2013-05-16 04:25:00,52.0,45.0,29.91,South,191,1.0,-999.0,78,-99.99,,,-99.99,,2013-05-16 11:25:00,
2013-05-16 04:35:00,52.0,46.0,29.92,ESE,107,0.0,-999.0,79,-99.99,,,-99.99,,2013-05-16 11:35:00,
2013-05-16 04:46:00,52.0,46.0,29.92,ESE,107,0.0,-999.0,79,-99.99,,,-99.99,,2013-05-16 11:46:00,
2013-05-16 04:56:00,52.0,45.0,29.92,ESE,107,0.0,-999.0,78,-99.99,,,-99.99,,2013-05-16 11:56:00,
2013-05-16 05:05:00,52.0,45.0,29.92,ESE,107,0.0,-999.0,78,-99.99,,,-99.99,,2013-05-16 12:05:00,
2013-05-16 05:13:00,52.0,45.0,29.92,ESE,107,0.0,-999.0,78,-99.99,,,-99.99,,2013-05-16 12:13:00,
2013-05-16 05:23:00,52.0,46.0,29.92,ESE,107,0.0,-999.0,79,-99.99,,,-99.99,,2013-05-16 12:23:00,
2013-05-16 05:34:00,52.0,46.0,29.92,ESE,107,0.0,-999.0,79,-99.99,,,-99.99,,2013-05-16 12:34:00,
2013-05-16 05:44:00,52.0,46.0,29.92,ESE,107,0.0,-999.0,79,-99.99,,,-99.99,,2013-05-16 12:44:00,
2013-05-16 05:53:00,52.0,46.0,29.92,ESE,107,0.0,-999.0,81,-99.99,,,-99.99,,2013-05-16 12:53:00,
2013-05-16 06:04:00,52.0,47.0,29.93,ESE,107,0.0,-999.0,83,-99.99,,,-99.99,,2013-05-16 13:04:00,
2013-05-16 06:11:00,52.0,47.0,29.93,ESE,107,0.0,-999.0,83,-99.99,,,-99.99,,2013-05-16 13:11:00,
2013-05-16 06:26:00,52.0,47.0,29.93,ESE,107,0.0,-999.0,84,-99.99,,,-99.99,,2013-05-16 13:26:00,
2013-05-16 06:35:00,52.0,48.0,29.93,ESE,107,0.0,-999.0,85,-99.99,,,-99.99,,2013-05-16 13:35:00,
2013-05-16 06:43:00,52.0,48.0,29.93,ESE,107,0.0,-999.0,85,-99.99,,,-99.99,,2013-05-16 13:43:00,
2013-05-16 06:55:00,52.0,48.0,29.93,ESE,107,0.0,-999.0,85,-99.99,,,-99.99,,2013-05-16 13:55:00,
2013-05-16 07:04:00,52.0,47.0,29.93,ESE,107,0.0,-999.0,84,-99.99,,,-99.99,,2013-05-16 14:04:00,
2013-05-16 07:15:00,52.0,47.0,29.93,ESE,107,0.0,-999.0,84,-99.99,,,-99.99,,2013-05-16 14:15:00,
2013-05-16 07:23:00,52.0,48.0,29.93,ESE,107,0.0,-999.0,85,-99.99,,,-99.99,,2013-05-16 14:23:00,
2013-05-16 07:37:00,52.0,48.0,29.93,ESE,107,0.0,-999.0,85,-99.99,,,-99.99,,2013-05-16 14:37:00,
2013-05-16 07:47:00,52.0,48.0,29.93,ESE,107,0.0,-999.0,85,-99.99,,,-99.99,,2013-05-16 14:47:00,
2013-05-16 07:56:00,53.0,49.0,29.93,ESE,107,0.0,-999.0,85,-99.99,,,-99.99,,2013-05-16 14:56:00,
2013-05-16 08:08:00,53.0,48.0,29.93,ESE,107,0.0,-999.0,82,-99.99,,,-99.99,,2013-05-16 15:08:00,
2013-05-16 08:17:00,53.0,48.0,29.93,ESE,107,0.0,-999.0,82,-99.99,,,-99.99,,2013-05-16 15:17:00,
2013-05-16 08:28:00,54.0,49.0,29.93,ESE,107,0.0,-999.0,82,-99.99,,,-99.99,,2013-05-16 15:28:00,
2013-05-16 08:40:00,54.0,48.0,29.93,ESE,107,0.0,-999.0,81,-99.99,,,-99.99,,2013-05-16 15:40:00,
2013-05-16 08:50:00,55.0,49.0,29.93,ESE,107,0.0,-999.0,79,-99.99,,,-99.99,,2013-05-16 15:50:00,
2013-05-16 09:00:00,55.0,49.0,29.93,ESE,107,0.0,-999.0,79,-99.99,,,-99.99,,2013-05-16 16:00:00,
2013-05-16 09:09:00,55.0,48.0,29.93,ESE,107,0.0,-999.0,76,-99.99,,,-99.99,,2013-05-16 16:09:00,
2013-05-16 09:19:00,55.0,48.0,29.93,ESE,107,0.0,-999.0,76,-99.99,,,-99.99,,2013-05-16 16:19:00,
2013-05-16 09:30:00,56.0,49.0,29.93,ESE,107,0.0,-999.0,76,-99.99,,,-99.99,,2013-05-16 16:30:00,
2013-05-16 09:40:00,57.0,-99.9,29.93,ESE,107,0.0,-999.0,72,-99.99,,,-99.99,,2013-05-16 16:40:00,
2013-05-16 09:50:00,57.0,48.0,29.93,ESE,107,0.0,-999.0,72,-99.99,,,-99.99,,2013-05-16 16:50:00,
2013-05-16 10:00:00,58.0,49.0,29.92,ESE,107,0.0,-999.0,71,-99.99,,,-99.99,,2013-05-16 17:00:00,
2013-05-16 10:10:00,60.0,49.0,29.92,ESE,121,1.0,-999.0,66,-99.99,,,-99.99,,2013-05-16 17:10:00,
2013-05-16 10:20:00,60.0,49.0,29.92,ESE,121,1.0,-999.0,66,-99.99,,,-99.99,,2013-05-16 17:20:00,
2013-05-16 10:30:00,60.0,47.0,29.91,ESE,121,1.0,-999.0,61,-99.99,,,-99.99,,2013-05-16 17:30:00,
2013-05-16 10:40:00,61.0,47.0,29.91,ESE,121,1.0,-999.0,61,-99.99,,,-99.99,,2013-05-16 17:40:00,
2013-05-16 10:50:00,62.0,-99.9,29.91,ESE,113,0.0,-999.0,56,-99.99,,,-99.99,,2013-05-16 17:50:00,
2013-05-16 11:00:00,62.0,-99.9,29.91,ESE,113,0.0,-999.0,56,-99.99,,,-99.99,,2013-05-16 18:00:00,
2013-05-16 11:10:00,65.0,47.0,29.91,ENE,71,1.0,-999.0,52,-99.99,,,-99.99,,2013-05-16 18:10:00,
2013-05-16 11:20:00,65.0,47.0,29.91,ENE,71,1.0,-999.0,52,-99.99,,,-99.99,,2013-05-16 18:20:00,
2013-05-16 11:30:00,-999.0,-99.9,29.90,East,84,1.0,-999.0,51,-99.99,,,-99.99,,2013-05-16 18:30:00,
2013-05-16 11:40:00,-999.0,-99.9,29.90,NE,55,1.0,-999.0,49,-99.99,,,-99.99,,2013-05-16 18:40:00,
2013-05-16 11:50:00,-999.0,-99.9,29.90,NE,55,1.0,-999.0,49,-99.99,,,-99.99,,2013-05-16 18:50:00,
2013-05-16 12:00:00,-999.0,-99.9,29.89,SSE,167,1.0,-999.0,48,-99.99,,,-99.99,,2013-05-16 19:00:00,
2013-05-16 12:10:00,65.0,45.0,29.89,South,173,2.0,-999.0,48,-99.99,,,-99.99,,2013-05-16 19:10:00,
2013-05-16 12:20:00,65.0,45.0,29.89,South,173,2.0,-999.0,48,-99.99,,,-99.99,,2013-05-16 19:20:00,
2013-05-16 12:30:00,65.0,44.0,29.89,NE,45,1.0,-999.0,47,-99.99,,,-99.99,,2013-05-16 19:30:00,
2013-05-16 12:40:00,66.0,-99.9,29.89,ENE,65,1.0,-999.0,46,-99.99,,,-99.99,,2013-05-16 19:40:00,
2013-05-16 12:50:00,66.0,-99.9,29.89,ENE,65,1.0,-999.0,46,-99.99,,,-99.99,,2013-05-16 19:50:00,
2013-05-16 13:00:00,65.0,-99.9,29.89,ENE,65,0.0,-999.0,48,-99.99,,,-99.99,,2013-05-16 20:00:00,
2013-05-16 13:10:00,-999.0,-99.9,29.89,West,267,1.0,-999.0,51,-99.99,,,-99.99,,2013-05-16 20:10:00,
2013-05-16 13:20:00,64.0,46.0,29.88,WSW,240,2.0,-999.0,52,-99.99,,,-99.99,,2013-05-16 20:20:00,
2013-05-16 13:30:00,64.0,46.0,29.88,WSW,240,2.0,-999.0,52,-99.99,,,-99.99,,2013-05-16 20:30:00,
2013-05-16 13:40:00,-999.0,-99.9,29.88,SSW,194,1.0,-999.0,50,-99.99,,,-99.99,,2013-05-16 20:40:00,
2013-05-16 13:50:00,66.0,45.0,29.87,WSW,252,3.0,-999.0,46,-99.99,,,-99.99,,2013-05-16 20:50:00,
2013-05-16 14:00:00,66.0,-99.9,29.87,WSW,252,3.0,-999.0,46,-99.99,,,-99.99,,2013-05-16 21:00:00,
2013-05-16 14:10:00,66.0,-99.9,29.87,South,191,2.0,-999.0,48,-99.99,,,-99.99,,2013-05-16 21:10:00,
2013-05-16 14:20:00,66.0,46.0,29.87,South,191,2.0,-999.0,48,-99.99,,,-99.99,,2013-05-16 21:20:00,
2013-05-16 14:29:00,67.0,47.0,29.86,SSW,212,2.0,-999.0,48,-99.99,,,-99.99,,2013-05-16 21:29:00,
2013-05-16 14:38:00,67.0,45.0,29.85,WSW,253,2.0,-999.0,45,-99.99,,,-99.99,,2013-05-16 21:38:00,
2013-05-16 14:50:00,67.0,45.0,29.85,WSW,253,2.0,-999.0,45,-99.99,,,-99.99,,2013-05-16 21:50:00,
2013-05-16 15:00:00,-999.0,-99.9,29.85,SSW,199,2.0,-999.0,45,-99.99,,,-99.99,,2013-05-16 22:00:00,
2013-05-16 15:07:00,68.0,45.0,29.85,WSW,248,2.0,-999.0,43,-99.99,,,-99.99,,2013-05-16 22:07:00,
2013-05-16 15:20:00,68.0,45.0,29.85,WSW,248,2.0,-999.0,43,-99.99,,,-99.99,,2013-05-16 22:20:00,
2013-05-16 15:30:00,68.0,45.0,29.84,South,183,2.0,-999.0,43,-99.99,,,-99.99,,2013-05-16 22:30:00,
2013-05-16 15:40:00,69.0,44.0,29.84,West,273,1.0,-999.0,40,-99.99,,,-99.99,,2013-05-16 22:40:00,
2013-05-16 15:50:00,69.0,44.0,29.84,West,273,1.0,-999.0,40,-99.99,,,-99.99,,2013-05-16 22:50:00,
2013-05-16 16:00:00,69.0,43.0,29.83,ESE,117,1.0,-999.0,39,-99.99,,,-99.99,,2013-05-16 23:00:00,
2013-05-16 16:06:00,69.0,43.0,29.83,WSW,243,2.0,-999.0,39,-99.99,,,-99.99,,2013-05-16 23:06:00,
2013-05-16 16:16:00,69.0,43.0,29.83,WSW,243,2.0,-999.0,39,-99.99,,,-99.99,,2013-05-16 23:16:00,
2013-05-16 16:24:00,70.0,44.0,29.82,West,261,2.0,-999.0,39,-99.99,,,-99.99,,2013-05-16 23:24:00,
2013-05-16 16:34:00,70.0,43.0,29.82,WSW,246,1.0,-999.0,38,-99.99,,,-99.99,,2013-05-16 23:34:00,
2013-05-16 16:45:00,70.0,43.0,29.82,WSW,246,1.0,-999.0,38,-99.99,,,-99.99,,2013-05-16 23:45:00,
2013-05-16 16:54:00,71.0,44.0,29.81,WSW,257,2.0,-999.0,38,-99.99,,,-99.99,,2013-05-16 23:54:00,
2013-05-16 17:02:00,70.0,44.0,29.81,SW,215,1.0,-999.0,39,-99.99,,,-99.99,,2013-05-17 00:02:00,
2013-05-16 17:13:00,70.0,44.0,29.81,SW,215,1.0,-999.0,39,-99.99,,,-99.99,,2013-05-17 00:13:00,
2013-05-16 17:22:00,70.0,45.0,29.81,West,275,2.0,-999.0,41,-99.99,,,-99.99,,2013-05-17 00:22:00,
2013-05-16 17:33:00,70.0,44.0,29.80,WSW,240,1.0,-999.0,39,-99.99,,,-99.99,,2013-05-17 00:33:00,
2013-05-16 17:43:00,70.0,44.0,29.80,WSW,240,1.0,-999.0,39,-99.99,,,-99.99,,2013-05-17 00:43:00,
2013-05-16 17:53:00,70.0,45.0,29.80,South,178,1.0,-999.0,40,-99.99,,,-99.99,,2013-05-17 00:53:00,
2013-05-16 18:03:00,69.0,47.0,29.80,South,182,1.0,-999.0,45,-99.99,,,-99.99,,2013-05-17 01:03:00,
2013-05-16 18:12:00,69.0,47.0,29.80,South,182,1.0,-999.0,45,-99.99,,,-99.99,,2013-05-17 01:12:00,
2013-05-16 18:23:00,69.0,47.0,29.80,South,182,1.0,-999.0,45,-99.99,,,-99.99,,2013-05-17 01:23:00,
2013-05-16 18:31:00,68.0,49.0,29.79,South,182,0.0,-999.0,50,-99.99,,,-99.99,,2013-05-17 01:31:00,
2013-05-16 18:43:00,68.0,49.0,29.79,South,182,0.0,-999.0,50,-99.99,,,-99.99,,2013-05-17 01:43:00,
2013-05-16 18:52:00,68.0,49.0,29.79,South,182,0.0,-999.0,50,-99.99,,,-99.99,,2013-05-17 01:52:00,
2013-05-16 19:01:00,68.0,49.0,29.79,South,182,0.0,-999.0,51,-99.99,,,-99.99,,2013-05-17 02:01:00,
2013-05-16 19:11:00,68.0,49.0,29.79,South,182,0.0,-999.0,51,-99.99,,,-99.99,,2013-05-17 02:11:00,
2013-05-16 19:21:00,66.0,49.0,29.79,South,182,0.0,-999.0,55,-99.99,,,-99.99,,2013-05-17 02:21:00,
2013-05-16 19:32:00,64.0,49.0,29.79,South,182,0.0,-999.0,59,-99.99,,,-99.99,,2013-05-17 02:32:00,
2013-05-16 19:41:00,64.0,49.0,29.79,South,182,0.0,-999.0,59,-99.99,,,-99.99,,2013-05-17 02:41:00,
2013-05-16 19:53:00,63.0,49.0,29.79,South,182,0.0,-999.0,61,-99.99,,,-99.99,,2013-05-17 02:53:00,
2013-05-16 20:01:00,62.0,50.0,29.79,South,182,0.0,-999.0,64,-99.99,,,-99.99,,2013-05-17 03:01:00,
2013-05-16 20:11:00,62.0,50.0,29.79,South,182,0.0,-999.0,64,-99.99,,,-99.99,,2013-05-17 03:11:00,
2013-05-16 20:22:00,60.0,48.0,29.80,South,182,0.0,-999.0,65,-99.99,,,-99.99,,2013-05-17 03:22:00,
2013-05-16 20:33:00,59.0,48.0,29.80,South,182,0.0,-999.0,68,-99.99,,,-99.99,,2013-05-17 03:33:00,
2013-05-16 20:43:00,59.0,48.0,29.80,South,182,0.0,-999.0,68,-99.99,,,-99.99,,2013-05-17 03:43:00,
2013-05-16 20:53:00,58.0,48.0,29.80,South,182,0.0,-999.0,70,-99.99,,,-99.99,,2013-05-17 03:53:00,
2013-05-16 21:02:00,57.0,48.0,29.81,South,182,0.0,-999.0,71,-99.99,,,-99.99,,2013-05-17 04:02:00,
2013-05-16 21:13:00,57.0,48.0,29.81,South,182,0.0,-999.0,71,-99.99,,,-99.99,,2013-05-17 04:13:00,
2013-05-16 21:23:00,56.0,47.0,29.81,South,182,0.0,-999.0,73,-99.99,,,-99.99,,2013-05-17 04:23:00,
2013-05-16 21:33:00,56.0,49.0,29.82,South,182,0.0,-999.0,76,-99.99,,,-99.99,,2013-05-17 04:33:00,
2013-05-16 21:43:00,56.0,49.0,29.82,South,182,0.0,-999.0,76,-99.99,,,-99.99,,2013-05-17 04:43:00,
2013-05-16 21:53:00,55.0,48.0,29.82,South,182,0.0,-999.0,76,-99.99,,,-99.99,,2013-05-17 04:53:00,
2013-05-16 22:02:00,55.0,48.0,29.82,South,182,0.0,-999.0,76,-99.99,,,-99.99,,2013-05-17 05:02:00,
2013-05-16 22:13:00,55.0,48.0,29.82,South,182,0.0,-999.0,76,-99.99,,,-99.99,,2013-05-17 05:13:00,
2013-05-16 22:21:00,54.0,47.0,29.83,South,182,0.0,-999.0,77,-99.99,,,-99.99,,2013-05-17 05:21:00,
2013-05-16 22:32:00,54.0,47.0,29.83,South,182,0.0,-999.0,78,-99.99,,,-99.99,,2013-05-17 05:32:00,
2013-05-16 22:42:00,54.0,47.0,29.83,South,182,0.0,-999.0,78,-99.99,,,-99.99,,2013-05-17 05:42:00,
2013-05-16 22:52:00,54.0,48.0,29.83,South,182,0.0,-999.0,79,-99.99,,,-99.99,,2013-05-17 05:52:00,
2013-05-16 23:01:00,53.0,47.0,29.83,South,182,0.0,-999.0,79,-99.99,,,-99.99,,2013-05-17 06:01:00,
2013-05-16 23:11:00,53.0,47.0,29.83,South,182,0.0,-999.0,79,-99.99,,,-99.99,,2013-05-17 06:11:00,
2013-05-16 23:21:00,53.0,47.0,29.83,South,182,0.0,-999.0,81,-99.99,,,-99.99,,2013-05-17 06:21:00,
2013-05-16 23:32:00,52.0,47.0,29.83,South,182,0.0,-999.0,82,-99.99,,,-99.99,,2013-05-17 06:32:00,
2013-05-16 23:42:00,52.0,47.0,29.83,South,182,0.0,-999.0,82,-99.99,,,-99.99,,2013-05-17 06:42:00,
2013-05-16 23:52:00,52.0,47.0,29.84,South,182,0.0,-999.0,83,-99.99,,,-99.99,,2013-05-17 06:52:00,